TimeHST,TemperatureF,Dew PointF,Humidity,Sea Level PressureIn,VisibilityMPH,Wind Direction,Wind SpeedMPH,Gust SpeedMPH,PrecipitationIn,Events,Conditions,WindDirDegrees,DateUTC
12:54 AM,64.0,55.0,73,30.15,10.0,NE,4.6,-,N/A,,Clear,50,2013-02-03 10:54:00
1:54 AM,64.0,55.0,73,30.13,10.0,North,4.6,-,N/A,,Clear,10,2013-02-03 11:54:00
2:54 AM,64.0,55.0,73,30.12,10.0,NE,5.8,-,N/A,,Clear,50,2013-02-03 12:54:00
3:54 AM,64.9,55.9,73,30.13,10.0,NE,5.8,-,N/A,,Clear,40,2013-02-03 13:54:00
4:54 AM,64.0,55.9,75,30.13,10.0,NE,8.1,-,N/A,,Clear,50,2013-02-03 14:54:00
5:54 AM,64.9,55.9,73,30.15,10.0,NE,12.7,-,N/A,,Clear,50,2013-02-03 15:54:00
6:54 AM,64.9,55.9,73,30.17,10.0,Calm,Calm,-,N/A,,Clear,0,2013-02-03 16:54:00
7:54 AM,66.9,57.0,70,30.19,10.0,ENE,11.5,23.0,N/A,,Clear,60,2013-02-03 17:54:00
8:54 AM,70.0,55.9,61,30.19,10.0,NE,15.0,27.6,N/A,,Partly Cloudy,50,2013-02-03 18:54:00
9:54 AM,72.0,55.9,57,30.20,10.0,NE,12.7,23.0,N/A,,Clear,50,2013-02-03 19:54:00
10:54 AM,73.0,57.9,59,30.19,10.0,NNE,13.8,21.9,N/A,,Clear,30,2013-02-03 20:54:00
11:54 AM,75.0,57.9,55,30.17,10.0,NE,15.0,24.2,N/A,,Clear,50,2013-02-03 21:54:00
12:54 PM,75.0,57.9,55,30.13,10.0,NE,16.1,25.3,N/A,,Clear,40,2013-02-03 22:54:00
1:54 PM,75.0,57.9,55,30.12,10.0,NNE,12.7,24.2,N/A,,Clear,30,2013-02-03 23:54:00
2:54 PM,73.0,57.9,59,30.10,10.0,NNE,13.8,27.6,N/A,,Clear,20,2013-02-04 00:54:00
3:54 PM,73.0,55.9,55,30.11,10.0,NNE,17.3,28.8,N/A,,Clear,20,2013-02-04 01:54:00
4:54 PM,71.1,57.9,63,30.14,10.0,NE,13.8,24.2,N/A,,Scattered Clouds,40,2013-02-04 02:54:00
5:54 PM,70.0,55.9,61,30.14,10.0,NE,9.2,19.6,N/A,,Scattered Clouds,50,2013-02-04 03:54:00
6:54 PM,69.1,57.0,65,30.17,10.0,NE,11.5,24.2,N/A,,Overcast,40,2013-02-04 04:54:00
7:54 PM,69.1,55.9,63,30.17,10.0,NE,17.3,24.2,N/A,,Mostly Cloudy,50,2013-02-04 05:54:00
8:54 PM,68.0,55.0,63,30.17,10.0,NE,12.7,20.7,N/A,,Partly Cloudy,50,2013-02-04 06:54:00
9:54 PM,69.1,55.0,61,30.17,10.0,NE,9.2,25.3,N/A,,Mostly Cloudy,40,2013-02-04 07:54:00
10:27 PM,69.8,57.2,64,30.15,10.0,NE,12.7,-,N/A,,Overcast,50,2013-02-04 08:27:00
10:49 PM,69.8,55.4,60,30.15,10.0,NE,12.7,21.9,N/A,,Mostly Cloudy,40,2013-02-04 08:49:00
10:54 PM,69.1,55.0,61,30.16,10.0,NE,15.0,21.9,N/A,,Mostly Cloudy,40,2013-02-04 08:54:00